Time,TemperatureF,DewpointF,PressureIn,WindDirection,WindDirectionDegrees,WindSpeedMPH,WindSpeedGustMPH,Humidity,HourlyPrecipIn,Conditions,Clouds,dailyrainin,SoftwareType,DateUTC
2013-09-05 00:01:00,54.0,53.0,30.63,NW,310,0.0,5.0,96,-99.99,,,-99.99,,2013-09-05 06:01:00,
2013-09-05 00:06:00,55.0,53.0,30.63,NW,320,2.0,4.0,95,-99.99,,,-99.99,,2013-09-05 06:06:00,
2013-09-05 00:16:00,54.0,53.0,30.63,North,350,5.0,7.0,95,-99.99,,,-99.99,,2013-09-05 06:16:00,
2013-09-05 00:21:00,54.0,53.0,30.63,NNE,30,2.0,6.0,95,-99.99,,,-99.99,,2013-09-05 06:21:00,
2013-09-05 00:26:00,54.0,53.0,30.63,NNW,340,3.0,5.0,96,-99.99,,,-99.99,,2013-09-05 06:26:00,
2013-09-05 00:31:00,54.0,52.0,30.63,NNW,330,5.0,5.0,96,-99.99,,,-99.99,,2013-09-05 06:31:00,
2013-09-05 00:41:00,54.0,52.0,30.63,NNW,340,0.0,6.0,96,-99.99,,,-99.99,,2013-09-05 06:41:00,
2013-09-05 00:46:00,54.0,52.0,30.63,NNW,340,0.0,0.0,96,-99.99,,,-99.99,,2013-09-05 06:46:00,
2013-09-05 00:51:00,53.0,52.0,30.63,NNW,340,0.0,0.0,96,-99.99,,,-99.99,,2013-09-05 06:51:00,
2013-09-05 01:01:00,53.0,52.0,30.63,NNW,340,0.0,0.0,95,-99.99,,,-99.99,,2013-09-05 07:01:00,
2013-09-05 01:06:00,53.0,52.0,30.63,NNW,340,0.0,0.0,96,-99.99,,,-99.99,,2013-09-05 07:06:00,
2013-09-05 01:16:00,52.0,51.0,30.62,NNW,340,0.0,0.0,95,-99.99,,,-99.99,,2013-09-05 07:16:00,
2013-09-05 01:26:00,52.0,51.0,30.62,NNW,340,0.0,0.0,95,-99.99,,,-99.99,,2013-09-05 07:26:00,
2013-09-05 01:36:00,52.0,50.0,30.62,NNW,340,0.0,0.0,96,-99.99,,,-99.99,,2013-09-05 07:36:00,
2013-09-05 01:46:00,51.0,50.0,30.62,NNW,340,0.0,0.0,96,-99.99,,,-99.99,,2013-09-05 07:46:00,
2013-09-05 01:51:00,51.0,50.0,30.62,North,350,5.0,0.0,96,-99.99,,,-99.99,,2013-09-05 07:51:00,
2013-09-05 02:01:00,51.0,50.0,30.63,North,350,0.0,5.0,96,-99.99,,,-99.99,,2013-09-05 08:01:00,
2013-09-05 02:06:00,51.0,50.0,30.62,North,10,0.0,4.0,96,-99.99,,,-99.99,,2013-09-05 08:06:00,
2013-09-05 02:11:00,50.0,49.0,30.62,North,350,0.0,4.0,96,-99.99,,,-99.99,,2013-09-05 08:11:00,
2013-09-05 02:16:00,50.0,49.0,30.63,North,350,0.0,4.0,97,-99.99,,,-99.99,,2013-09-05 08:16:00,
2013-09-05 02:26:00,50.0,49.0,30.63,West,280,0.0,0.0,97,-99.99,,,-99.99,,2013-09-05 08:26:00,
2013-09-05 02:31:00,50.0,49.0,30.63,West,280,0.0,4.0,97,-99.99,,,-99.99,,2013-09-05 08:31:00,
2013-09-05 02:36:00,50.0,49.0,30.63,West,280,0.0,0.0,97,-99.99,,,-99.99,,2013-09-05 08:36:00,
2013-09-05 02:46:00,50.0,49.0,30.63,NNE,20,3.0,4.0,97,-99.99,,,-99.99,,2013-09-05 08:46:00,
2013-09-05 02:56:00,49.0,49.0,30.63,North,350,0.0,5.0,97,-99.99,,,-99.99,,2013-09-05 08:56:00,
2013-09-05 03:01:00,49.0,48.0,30.63,North,350,0.0,4.0,97,-99.99,,,-99.99,,2013-09-05 09:01:00,
2013-09-05 03:06:00,49.0,48.0,30.63,West,260,5.0,0.0,97,-99.99,,,-99.99,,2013-09-05 09:06:00,
2013-09-05 03:11:00,49.0,48.0,30.63,SW,230,0.0,4.0,97,-99.99,,,-99.99,,2013-09-05 09:11:00,
2013-09-05 03:21:00,49.0,48.0,30.63,North,350,3.0,5.0,98,-99.99,,,-99.99,,2013-09-05 09:21:00,
2013-09-05 03:31:00,48.0,48.0,30.63,North,0,3.0,6.0,98,-99.99,,,-99.99,,2013-09-05 09:31:00,
2013-09-05 03:41:00,48.0,48.0,30.63,NNE,30,4.0,0.0,99,-99.99,,,-99.99,,2013-09-05 09:41:00,
2013-09-05 03:51:00,48.0,47.0,30.63,NNE,20,3.0,6.0,98,-99.99,,,-99.99,,2013-09-05 09:51:00,
2013-09-05 03:56:00,47.0,47.0,30.63,NNW,330,6.0,7.0,98,-99.99,,,-99.99,,2013-09-05 09:56:00,
2013-09-05 04:01:00,47.0,47.0,30.64,NW,320,7.0,7.0,98,-99.99,,,-99.99,,2013-09-05 10:01:00,
2013-09-05 04:06:00,47.0,47.0,30.64,North,350,6.0,9.0,99,-99.99,,,-99.99,,2013-09-05 10:06:00,
2013-09-05 04:11:00,47.0,47.0,30.65,NNW,330,6.0,8.0,99,-99.99,,,-99.99,,2013-09-05 10:11:00,
2013-09-05 04:16:00,47.0,47.0,30.64,NNW,330,7.0,7.0,100,-99.99,,,-99.99,,2013-09-05 10:16:00,
2013-09-05 04:21:00,48.0,47.0,30.64,North,350,3.0,8.0,100,-99.99,,,-99.99,,2013-09-05 10:21:00,
2013-09-05 04:26:00,47.0,47.0,30.64,North,0,6.0,8.0,100,-99.99,,,-99.99,,2013-09-05 10:26:00,
2013-09-05 04:36:00,47.0,47.0,30.64,North,0,4.0,6.0,100,-99.99,,,-99.99,,2013-09-05 10:36:00,
2013-09-05 04:46:00,47.0,46.0,30.64,North,0,5.0,6.0,99,-99.99,,,-99.99,,2013-09-05 10:46:00,
2013-09-05 04:51:00,46.0,46.0,30.64,NW,320,7.0,8.0,99,-99.99,,,-99.99,,2013-09-05 10:51:00,
2013-09-05 04:56:00,46.0,46.0,30.64,NNW,330,8.0,9.0,100,-99.99,,,-99.99,,2013-09-05 10:56:00,
2013-09-05 05:01:00,47.0,47.0,30.64,NNW,330,0.0,9.0,100,-99.99,,,-99.99,,2013-09-05 11:01:00,
2013-09-05 05:11:00,47.0,46.0,30.64,North,0,4.0,7.0,99,-99.99,,,-99.99,,2013-09-05 11:11:00,
2013-09-05 05:21:00,46.0,46.0,30.64,NE,40,3.0,5.0,100,-99.99,,,-99.99,,2013-09-05 11:21:00,
2013-09-05 05:26:00,46.0,46.0,30.64,NNE,30,0.0,6.0,100,-99.99,,,-99.99,,2013-09-05 11:26:00,
2013-09-05 05:36:00,46.0,46.0,30.64,NNW,330,6.0,6.0,100,-99.99,,,-99.99,,2013-09-05 11:36:00,
2013-09-05 05:41:00,46.0,46.0,30.64,NW,310,7.0,7.0,100,-99.99,,,-99.99,,2013-09-05 11:41:00,
2013-09-05 05:46:00,46.0,46.0,30.65,North,0,6.0,7.0,100,-99.99,,,-99.99,,2013-09-05 11:46:00,
2013-09-05 05:51:00,46.0,46.0,30.64,North,0,7.0,8.0,99,-99.99,,,-99.99,,2013-09-05 11:51:00,
2013-09-05 05:56:00,46.0,46.0,30.64,NNW,330,9.0,9.0,99,-99.99,,,-99.99,,2013-09-05 11:56:00,
2013-09-05 06:01:00,46.0,46.0,30.65,North,350,7.0,8.0,99,-99.99,,,-99.99,,2013-09-05 12:01:00,
2013-09-05 06:11:00,45.0,45.0,30.65,NNE,20,4.0,8.0,100,-99.99,,,-99.99,,2013-09-05 12:11:00,
2013-09-05 06:16:00,45.0,45.0,30.65,NE,50,0.0,5.0,100,-99.99,,,-99.99,,2013-09-05 12:16:00,
2013-09-05 06:21:00,45.0,45.0,30.65,NE,50,0.0,3.0,100,-99.99,,,-99.99,,2013-09-05 12:21:00,
2013-09-05 06:26:00,45.0,45.0,30.65,NE,50,0.0,0.0,100,-99.99,,,-99.99,,2013-09-05 12:26:00,
2013-09-05 06:31:00,45.0,45.0,30.65,NE,50,0.0,0.0,99,-99.99,,,-99.99,,2013-09-05 12:31:00,
2013-09-05 06:36:00,45.0,45.0,30.65,WNW,300,0.0,0.0,99,-99.99,,,-99.99,,2013-09-05 12:36:00,
2013-09-05 06:46:00,45.0,45.0,30.65,WNW,300,0.0,0.0,100,-99.99,,,-99.99,,2013-09-05 12:46:00,
2013-09-05 06:51:00,45.0,45.0,30.65,NNW,330,6.0,0.0,100,-99.99,,,-99.99,,2013-09-05 12:51:00,
2013-09-05 07:01:00,45.0,45.0,30.65,NNW,340,7.0,8.0,100,-99.99,,,-99.99,,2013-09-05 13:01:00,
2013-09-05 07:06:00,45.0,45.0,30.65,NW,320,7.0,7.0,100,-99.99,,,-99.99,,2013-09-05 13:06:00,
2013-09-05 07:16:00,45.0,45.0,30.65,NNW,330,3.0,9.0,100,-99.99,,,-99.99,,2013-09-05 13:16:00,
2013-09-05 07:26:00,45.0,45.0,30.65,NNW,340,6.0,8.0,100,-99.99,,,-99.99,,2013-09-05 13:26:00,
2013-09-05 07:31:00,46.0,46.0,30.65,NW,310,4.0,8.0,100,-99.99,,,-99.99,,2013-09-05 13:31:00,
2013-09-05 07:36:00,46.0,46.0,30.65,NNW,330,6.0,7.0,100,-99.99,,,-99.99,,2013-09-05 13:36:00,
2013-09-05 07:46:00,48.0,47.0,30.65,NNW,340,6.0,8.0,98,-99.99,,,-99.99,,2013-09-05 13:46:00,
2013-09-05 07:56:00,49.0,48.0,30.65,NW,310,7.0,7.0,96,-99.99,,,-99.99,,2013-09-05 13:56:00,
2013-09-05 08:01:00,50.0,49.0,30.65,NW,320,6.0,9.0,96,-99.99,,,-99.99,,2013-09-05 14:01:00,
2013-09-05 08:06:00,51.0,49.0,30.65,NW,310,7.0,8.0,95,-99.99,,,-99.99,,2013-09-05 14:06:00,
2013-09-05 08:11:00,51.0,50.0,30.66,West,280,8.0,9.0,94,-99.99,,,-99.99,,2013-09-05 14:11:00,
2013-09-05 08:21:00,53.0,50.0,30.66,NW,320,0.0,8.0,92,-99.99,,,-99.99,,2013-09-05 14:21:00,
2013-09-05 08:31:00,54.0,51.0,30.66,NW,310,3.0,6.0,90,-99.99,,,-99.99,,2013-09-05 14:31:00,
2013-09-05 08:36:00,55.0,52.0,30.65,NW,320,5.0,6.0,90,-99.99,,,-99.99,,2013-09-05 14:36:00,
2013-09-05 08:41:00,55.0,52.0,30.65,NNW,340,0.0,7.0,88,-99.99,,,-99.99,,2013-09-05 14:41:00,
2013-09-05 08:51:00,56.0,52.0,30.65,NNW,340,3.0,5.0,87,-99.99,,,-99.99,,2013-09-05 14:51:00,
2013-09-05 08:56:00,57.0,52.0,30.66,NNW,340,6.0,6.0,84,-99.99,,,-99.99,,2013-09-05 14:56:00,
2013-09-05 09:01:00,57.0,52.0,30.65,WNW,300,3.0,7.0,82,-99.99,,,-99.99,,2013-09-05 15:01:00,
2013-09-05 09:06:00,57.0,52.0,30.66,NNW,330,5.0,6.0,83,-99.99,,,-99.99,,2013-09-05 15:06:00,
2013-09-05 09:16:00,58.0,52.0,30.66,West,280,7.0,7.0,80,-99.99,,,-99.99,,2013-09-05 15:16:00,
2013-09-05 09:26:00,59.0,53.0,30.66,NNW,340,0.0,6.0,83,-99.99,,,-99.99,,2013-09-05 15:26:00,
2013-09-05 09:31:00,59.0,53.0,30.66,NNW,340,0.0,2.0,81,-99.99,,,-99.99,,2013-09-05 15:31:00,
2013-09-05 09:36:00,59.0,53.0,30.66,NNW,340,0.0,0.0,80,-99.99,,,-99.99,,2013-09-05 15:36:00,
2013-09-05 09:41:00,60.0,53.0,30.66,NNW,340,0.0,0.0,78,-99.99,,,-99.99,,2013-09-05 15:41:00,
2013-09-05 09:51:00,61.0,54.0,30.66,SSW,200,0.0,3.0,77,-99.99,,,-99.99,,2013-09-05 15:51:00,
2013-09-05 09:56:00,62.0,53.0,30.66,SSW,200,0.0,0.0,73,-99.99,,,-99.99,,2013-09-05 15:56:00,
2013-09-05 10:01:00,62.0,52.0,30.66,West,270,0.0,0.0,70,-99.99,,,-99.99,,2013-09-05 16:01:00,
2013-09-05 10:11:00,63.0,53.0,30.66,West,270,0.0,0.0,70,-99.99,,,-99.99,,2013-09-05 16:11:00,
2013-09-05 10:16:00,64.0,54.0,30.66,West,270,0.0,0.0,71,-99.99,,,-99.99,,2013-09-05 16:16:00,
2013-09-05 10:26:00,65.0,53.0,30.66,West,270,0.0,0.0,66,-99.99,,,-99.99,,2013-09-05 16:26:00,
2013-09-05 10:36:00,65.0,53.0,30.65,South,170,0.0,3.0,65,-99.99,,,-99.99,,2013-09-05 16:36:00,
2013-09-05 10:46:00,66.0,53.0,30.66,South,170,4.0,0.0,62,-99.99,,,-99.99,,2013-09-05 16:46:00,
2013-09-05 10:56:00,67.0,54.0,30.65,SSE,150,0.0,5.0,62,-99.99,,,-99.99,,2013-09-05 16:56:00,
2013-09-05 11:01:00,68.0,55.0,30.65,ESE,120,0.0,5.0,62,-99.99,,,-99.99,,2013-09-05 17:01:00,
2013-09-05 11:11:00,68.0,53.0,30.65,South,170,0.0,4.0,58,-99.99,,,-99.99,,2013-09-05 17:11:00,
2013-09-05 11:21:00,69.0,51.0,30.64,South,170,0.0,0.0,52,-99.99,,,-99.99,,2013-09-05 17:21:00,
2013-09-05 11:26:00,70.0,51.0,30.64,South,190,3.0,4.0,52,-99.99,,,-99.99,,2013-09-05 17:26:00,
2013-09-05 11:36:00,70.0,50.0,30.64,ENE,70,0.0,5.0,49,-99.99,,,-99.99,,2013-09-05 17:36:00,
2013-09-05 11:46:00,71.0,51.0,30.64,SW,230,0.0,7.0,50,-99.99,,,-99.99,,2013-09-05 17:46:00,
2013-09-05 11:51:00,71.0,51.0,30.63,South,170,6.0,0.0,49,-99.99,,,-99.99,,2013-09-05 17:51:00,
2013-09-05 12:01:00,72.0,52.0,30.63,SSW,210,0.0,6.0,48,-99.99,,,-99.99,,2013-09-05 18:01:00,
2013-09-05 12:11:00,73.0,51.0,30.63,SSW,210,0.0,0.0,46,-99.99,,,-99.99,,2013-09-05 18:11:00,
2013-09-05 12:16:00,73.0,51.0,30.63,South,180,0.0,0.0,45,-99.99,,,-99.99,,2013-09-05 18:16:00,
2013-09-05 12:26:00,74.0,51.0,30.63,ESE,120,0.0,0.0,46,-99.99,,,-99.99,,2013-09-05 18:26:00,
2013-09-05 12:31:00,74.0,52.0,30.63,SW,220,0.0,3.0,45,-99.99,,,-99.99,,2013-09-05 18:31:00,
2013-09-05 12:41:00,75.0,49.0,30.62,SSE,160,3.0,5.0,41,-99.99,,,-99.99,,2013-09-05 18:41:00,
2013-09-05 12:51:00,75.0,49.0,30.62,SE,140,0.0,5.0,40,-99.99,,,-99.99,,2013-09-05 18:51:00,
2013-09-05 13:01:00,75.0,49.0,30.62,SSE,160,4.0,8.0,40,-99.99,,,-99.99,,2013-09-05 19:01:00,
2013-09-05 13:06:00,76.0,51.0,30.62,SE,140,5.0,8.0,42,-99.99,,,-99.99,,2013-09-05 19:06:00,
2013-09-05 13:16:00,76.0,50.0,30.61,SSE,150,8.0,8.0,40,-99.99,,,-99.99,,2013-09-05 19:16:00,
2013-09-05 13:21:00,77.0,50.0,30.61,SSE,160,7.0,9.0,39,-99.99,,,-99.99,,2013-09-05 19:21:00,
2013-09-05 13:31:00,77.0,49.0,30.61,South,180,10.0,10.0,38,-99.99,,,-99.99,,2013-09-05 19:31:00,
2013-09-05 13:36:00,78.0,50.0,30.61,SSE,160,6.0,10.0,38,-99.99,,,-99.99,,2013-09-05 19:36:00,
2013-09-05 13:46:00,77.0,48.0,30.61,East,80,2.0,9.0,36,-99.99,,,-99.99,,2013-09-05 19:46:00,
2013-09-05 13:51:00,77.0,49.0,30.60,SSE,150,11.0,11.0,37,-99.99,,,-99.99,,2013-09-05 19:51:00,
2013-09-05 14:01:00,78.0,47.0,30.60,SSE,160,3.0,11.0,34,-99.99,,,-99.99,,2013-09-05 20:01:00,
2013-09-05 14:11:00,78.0,47.0,30.60,ESE,120,6.0,12.0,33,-99.99,,,-99.99,,2013-09-05 20:11:00,
2013-09-05 14:16:00,78.0,43.0,30.60,SSE,160,6.0,8.0,29,-99.99,,,-99.99,,2013-09-05 20:16:00,
2013-09-05 14:26:00,79.0,47.0,30.60,SW,220,3.0,11.0,33,-99.99,,,-99.99,,2013-09-05 20:26:00,
2013-09-05 14:31:00,79.0,44.0,30.59,South,180,5.0,10.0,29,-99.99,,,-99.99,,2013-09-05 20:31:00,
2013-09-05 14:36:00,79.0,44.0,30.59,South,190,5.0,8.0,29,-99.99,,,-99.99,,2013-09-05 20:36:00,
2013-09-05 14:41:00,79.0,45.0,30.59,South,170,9.0,9.0,30,-99.99,,,-99.99,,2013-09-05 20:41:00,
2013-09-05 14:46:00,79.0,45.0,30.59,South,170,6.0,10.0,30,-99.99,,,-99.99,,2013-09-05 20:46:00,
2013-09-05 14:56:00,80.0,46.0,30.58,South,170,7.0,9.0,31,-99.99,,,-99.99,,2013-09-05 20:56:00,
2013-09-05 15:01:00,80.0,43.0,30.58,South,180,6.0,13.0,27,-99.99,,,-99.99,,2013-09-05 21:01:00,
2013-09-05 15:11:00,80.0,46.0,30.58,South,180,8.0,9.0,30,-99.99,,,-99.99,,2013-09-05 21:11:00,
2013-09-05 15:16:00,81.0,43.0,30.58,South,190,0.0,12.0,27,-99.99,,,-99.99,,2013-09-05 21:16:00,
2013-09-05 15:26:00,81.0,41.0,30.58,ESE,110,2.0,12.0,24,-99.99,,,-99.99,,2013-09-05 21:26:00,
2013-09-05 15:31:00,80.0,39.0,30.57,East,80,0.0,10.0,23,-99.99,,,-99.99,,2013-09-05 21:31:00,
2013-09-05 15:36:00,80.0,38.0,30.57,South,170,5.0,5.0,22,-99.99,,,-99.99,,2013-09-05 21:36:00,
2013-09-05 15:41:00,81.0,43.0,30.57,SW,230,0.0,8.0,26,-99.99,,,-99.99,,2013-09-05 21:41:00,
2013-09-05 15:46:00,81.0,40.0,30.57,SSE,160,5.0,8.0,23,-99.99,,,-99.99,,2013-09-05 21:46:00,
2013-09-05 15:51:00,82.0,42.0,30.57,SSW,200,10.0,10.0,25,-99.99,,,-99.99,,2013-09-05 21:51:00,
2013-09-05 16:01:00,82.0,40.0,30.56,South,180,6.0,7.0,22,-99.99,,,-99.99,,2013-09-05 22:01:00,
2013-09-05 16:06:00,82.0,38.0,30.56,South,190,4.0,9.0,21,-99.99,,,-99.99,,2013-09-05 22:06:00,
2013-09-05 16:16:00,82.0,40.0,30.55,South,180,5.0,8.0,22,-99.99,,,-99.99,,2013-09-05 22:16:00,
2013-09-05 16:21:00,82.0,37.0,30.55,SW,230,0.0,9.0,19,-99.99,,,-99.99,,2013-09-05 22:21:00,
2013-09-05 16:31:00,82.0,39.0,30.55,West,270,6.0,6.0,21,-99.99,,,-99.99,,2013-09-05 22:31:00,
2013-09-05 16:36:00,82.0,41.0,30.55,NW,320,7.0,7.0,24,-99.99,,,-99.99,,2013-09-05 22:36:00,
2013-09-05 16:46:00,82.0,40.0,30.55,WNW,290,5.0,8.0,23,-99.99,,,-99.99,,2013-09-05 22:46:00,
2013-09-05 16:51:00,81.0,41.0,30.55,South,170,3.0,5.0,24,-99.99,,,-99.99,,2013-09-05 22:51:00,
2013-09-05 17:01:00,81.0,43.0,30.55,WNW,290,6.0,8.0,26,-99.99,,,-99.99,,2013-09-05 23:01:00,
2013-09-05 17:06:00,81.0,43.0,30.55,WNW,290,8.0,9.0,26,-99.99,,,-99.99,,2013-09-05 23:06:00,
2013-09-05 17:11:00,80.0,44.0,30.54,WNW,300,10.0,10.0,28,-99.99,,,-99.99,,2013-09-05 23:11:00,
2013-09-05 17:21:00,79.0,49.0,30.55,NW,310,8.0,12.0,36,-99.99,,,-99.99,,2013-09-05 23:21:00,
2013-09-05 17:31:00,79.0,48.0,30.54,North,0,4.0,10.0,34,-99.99,,,-99.99,,2013-09-05 23:31:00,
2013-09-05 17:36:00,79.0,49.0,30.53,WNW,300,5.0,11.0,35,-99.99,,,-99.99,,2013-09-05 23:36:00,
2013-09-05 17:46:00,79.0,49.0,30.53,West,280,6.0,8.0,35,-99.99,,,-99.99,,2013-09-05 23:46:00,
2013-09-05 17:51:00,79.0,49.0,30.53,WNW,300,7.0,8.0,35,-99.99,,,-99.99,,2013-09-05 23:51:00,
2013-09-05 17:56:00,79.0,50.0,30.53,WNW,300,8.0,8.0,37,-99.99,,,-99.99,,2013-09-05 23:56:00,
2013-09-05 18:01:00,78.0,49.0,30.53,WNW,300,5.0,8.0,36,-99.99,,,-99.99,,2013-09-06 00:01:00,
2013-09-05 18:06:00,78.0,51.0,30.53,WNW,290,4.0,7.0,38,-99.99,,,-99.99,,2013-09-06 00:06:00,
2013-09-05 18:11:00,78.0,47.0,30.53,NW,310,7.0,7.0,34,-99.99,,,-99.99,,2013-09-06 00:11:00,
2013-09-05 18:21:00,77.0,48.0,30.53,NNW,340,3.0,6.0,36,-99.99,,,-99.99,,2013-09-06 00:21:00,
2013-09-05 18:26:00,77.0,51.0,30.53,West,280,0.0,5.0,40,-99.99,,,-99.99,,2013-09-06 00:26:00,
2013-09-05 18:31:00,77.0,51.0,30.53,West,270,0.0,5.0,41,-99.99,,,-99.99,,2013-09-06 00:31:00,
2013-09-05 18:36:00,76.0,51.0,30.53,West,270,4.0,6.0,42,-99.99,,,-99.99,,2013-09-06 00:36:00,
2013-09-05 18:41:00,76.0,51.0,30.53,NW,320,0.0,4.0,42,-99.99,,,-99.99,,2013-09-06 00:41:00,
2013-09-05 18:46:00,75.0,52.0,30.52,West,280,3.0,5.0,44,-99.99,,,-99.99,,2013-09-06 00:46:00,
2013-09-05 18:51:00,75.0,52.0,30.52,WNW,290,4.0,5.0,45,-99.99,,,-99.99,,2013-09-06 00:51:00,
2013-09-05 18:56:00,74.0,51.0,30.52,WNW,300,5.0,5.0,45,-99.99,,,-99.99,,2013-09-06 00:56:00,
2013-09-05 19:06:00,73.0,49.0,30.52,NNW,330,6.0,6.0,43,-99.99,,,-99.99,,2013-09-06 01:06:00,
2013-09-05 19:16:00,72.0,50.0,30.53,WNW,290,0.0,7.0,45,-99.99,,,-99.99,,2013-09-06 01:16:00,
2013-09-05 19:26:00,71.0,50.0,30.53,West,260,0.0,0.0,48,-99.99,,,-99.99,,2013-09-06 01:26:00,
2013-09-05 19:31:00,71.0,51.0,30.54,SSE,160,4.0,4.0,50,-99.99,,,-99.99,,2013-09-06 01:31:00,
2013-09-05 19:41:00,70.0,52.0,30.54,SSE,150,6.0,6.0,53,-99.99,,,-99.99,,2013-09-06 01:41:00,
2013-09-05 19:46:00,69.0,50.0,30.54,SSE,160,10.0,10.0,51,-99.99,,,-99.99,,2013-09-06 01:46:00,
2013-09-05 19:56:00,68.0,52.0,30.54,SSE,160,10.0,12.0,56,-99.99,,,-99.99,,2013-09-06 01:56:00,
2013-09-05 20:06:00,67.0,52.0,30.54,South,170,10.0,14.0,58,-99.99,,,-99.99,,2013-09-06 02:06:00,
2013-09-05 20:11:00,67.0,52.0,30.54,South,170,7.0,12.0,58,-99.99,,,-99.99,,2013-09-06 02:11:00,
2013-09-05 20:21:00,66.0,50.0,30.55,ESE,110,0.0,8.0,56,-99.99,,,-99.99,,2013-09-06 02:21:00,
2013-09-05 20:31:00,66.0,50.0,30.55,ENE,60,3.0,0.0,56,-99.99,,,-99.99,,2013-09-06 02:31:00,
2013-09-05 20:41:00,65.0,49.0,30.55,East,90,6.0,6.0,55,-99.99,,,-99.99,,2013-09-06 02:41:00,
2013-09-05 20:46:00,66.0,49.0,30.55,SE,140,0.0,7.0,54,-99.99,,,-99.99,,2013-09-06 02:46:00,
2013-09-05 20:56:00,66.0,50.0,30.56,SE,130,0.0,7.0,57,-99.99,,,-99.99,,2013-09-06 02:56:00,
2013-09-05 21:01:00,65.0,50.0,30.57,West,270,2.0,0.0,57,-99.99,,,-99.99,,2013-09-06 03:01:00,
2013-09-05 21:11:00,64.0,51.0,30.57,NNW,330,0.0,6.0,62,-99.99,,,-99.99,,2013-09-06 03:11:00,
2013-09-05 21:21:00,63.0,51.0,30.57,NW,310,0.0,5.0,64,-99.99,,,-99.99,,2013-09-06 03:21:00,
2013-09-05 21:31:00,62.0,50.0,30.58,NNW,330,5.0,0.0,66,-99.99,,,-99.99,,2013-09-06 03:31:00,
2013-09-05 21:36:00,61.0,51.0,30.58,NW,320,0.0,6.0,68,-99.99,,,-99.99,,2013-09-06 03:36:00,
2013-09-05 21:46:00,60.0,50.0,30.58,NNW,340,6.0,6.0,69,-99.99,,,-99.99,,2013-09-06 03:46:00,
2013-09-05 21:56:00,59.0,50.0,30.58,NW,320,0.0,7.0,70,-99.99,,,-99.99,,2013-09-06 03:56:00,
2013-09-05 22:01:00,59.0,50.0,30.58,NW,320,0.0,5.0,71,-99.99,,,-99.99,,2013-09-06 04:01:00,
2013-09-05 22:06:00,59.0,50.0,30.58,NNE,20,0.0,0.0,73,-99.99,,,-99.99,,2013-09-06 04:06:00,
2013-09-05 22:11:00,59.0,50.0,30.58,North,0,5.0,5.0,73,-99.99,,,-99.99,,2013-09-06 04:11:00,
2013-09-05 22:16:00,58.0,50.0,30.58,North,350,0.0,6.0,74,-99.99,,,-99.99,,2013-09-06 04:16:00,
2013-09-05 22:26:00,58.0,51.0,30.58,North,350,0.0,0.0,77,-99.99,,,-99.99,,2013-09-06 04:26:00,
2013-09-05 22:36:00,57.0,50.0,30.59,NW,310,11.0,0.0,78,-99.99,,,-99.99,,2013-09-06 04:36:00,
2013-09-05 22:41:00,56.0,50.0,30.59,WNW,300,5.0,11.0,79,-99.99,,,-99.99,,2013-09-06 04:41:00,
2013-09-05 22:46:00,56.0,50.0,30.59,NNE,20,0.0,10.0,80,-99.99,,,-99.99,,2013-09-06 04:46:00,
2013-09-05 22:51:00,56.0,50.0,30.59,ENE,60,2.0,6.0,81,-99.99,,,-99.99,,2013-09-06 04:51:00,
2013-09-05 22:56:00,56.0,50.0,30.59,ENE,60,0.0,3.0,81,-99.99,,,-99.99,,2013-09-06 04:56:00,
2013-09-05 23:01:00,56.0,50.0,30.59,ENE,60,0.0,0.0,81,-99.99,,,-99.99,,2013-09-06 05:01:00,
2013-09-05 23:11:00,55.0,50.0,30.60,WNW,290,5.0,5.0,82,-99.99,,,-99.99,,2013-09-06 05:11:00,
2013-09-05 23:21:00,55.0,50.0,30.60,NNE,20,5.0,8.0,82,-99.99,,,-99.99,,2013-09-06 05:21:00,
2013-09-05 23:26:00,55.0,50.0,30.60,NNE,30,2.0,7.0,83,-99.99,,,-99.99,,2013-09-06 05:26:00,
2013-09-05 23:36:00,54.0,50.0,30.60,WNW,300,5.0,5.0,84,-99.99,,,-99.99,,2013-09-06 05:36:00,
2013-09-05 23:46:00,54.0,50.0,30.60,North,350,0.0,5.0,85,-99.99,,,-99.99,,2013-09-06 05:46:00,
2013-09-05 23:51:00,54.0,49.0,30.60,North,350,0.0,0.0,84,-99.99,,,-99.99,,2013-09-06 05:51:00,